[[{"header":{"parameterUnit":"m.s-1","parameterCategory":1,"la1":30.2991,"la2":30.254,"lo1":-89.0895,"lo2":-89.0444,"dy":0.0017,"dx":0.0017,"nx":28,"ny":28,"refTime":"2024-02-11T03:00:00:Z","depth":0,"parameterNumber":2,"parameterNumberName":"U-component_of_WINDS"},"data":[0,0,0,0,0,0,0,0,0,0,0,0,0,0,0,0,0,0,0,0,0,0,0,0,0,0,0,0,0,0,0,0,0,0,0,0,0,0,0,0,0,0,0,0,0,0,0,0,0,0,0,0,0,0,0,0,0,0,-1.0706,-1.0707,0,-1.0819,-1.0821,-1.0822,-1.0885,-1.0885,-1.0885,-1.0886,-1.1006,-1.1009,-1.1012,0,0,0,0,0,0,0,0,0,0,0,0,0,-1.0548,-1.055,-1.0706,-1.0707,-1.0709,-1.0819,-1.0821,-1.0822,-1.0885,-1.0885,-1.0885,-1.0886,-1.1005,-1.1009,-1.1013,0,0,0,0,0,0,0,0,0,0,0,0,0,-1.0635,-1.0551,-1.0706,-1.0753,-1.0758,-1.0819,-1.0821,-1.0823,-1.0885,-1.0885,-1.0886,-1.0886,-1.1004,-1.1009,-1.1013,-1.1036,0,0,-1.1027,-1.1029,0,0,0,0,0,0,0,0,-1.063,-1.064,-1.0745,-1.075,-1.0756,-1.0838,-1.081,-1.0895,-1.0885,-1.0837,-1.0886,-1.0886,-1.0951,-1.096,-1.098,-1.1042,-1.1047,-1.1028,-1.103,-1.1032,-1.1034,0,0,0,0,0,0,0,-1.0623,-1.0636,-1.0751,-1.0746,-1.0753,-1.077,-1.0783,-1.0826,-1.0891,-1.0841,-1.0846,-1.0858,-1.0954,-1.0976,-1.0984,-1.1049,-1.1028,-1.1032,-1.1034,-1.1036,-1.1136,-1.1136,0,0,0,0,0,0,-1.0609,-1.063,-1.0747,-1.0754,-1.0692,-1.0773,-1.0787,-1.0812,-1.0891,-1.0903,-1.0858,-1.0861,-1.0968,-1.0978,-1.0988,-1.1021,-1.1032,-1.1037,-1.1039,-1.1136,-1.1136,-1.1136,0,0,0,0,0,0,-1.0606,-1.0619,-1.0743,-1.0694,-1.0711,-1.0775,-1.0803,-1.0814,-1.0836,-1.0903,-1.0916,-1.0868,-1.0969,-1.0982,-1.1024,-1.1026,-1.1039,-1.1043,-1.1136,-1.1136,-1.1136,-1.1085,0,0,0,0,0,0,-1.0601,-1.0617,-1.0626,-1.0693,-1.0713,-1.0775,-1.0803,-1.0816,-1.0843,-1.0848,-1.0916,-1.0928,-1.097,-1.1017,-1.1028,-1.1032,-1.1046,-1.1136,-1.1136,-1.1136,-1.1087,-1.1083,-1.108,0,0,0,0,0,-1.0595,-1.0608,-1.0626,-1.0639,-1.0724,-1.0774,-1.0786,-1.0832,-1.0843,-1.0853,-1.0896,-1.0926,-1.1024,-1.102,-1.1034,-1.1039,-1.1137,-1.1136,-1.1136,-1.1088,-1.1084,-1.108,0,0,0,0,0,0,-1.054,-1.0617,-1.0638,-1.0673,-1.0716,-1.0785,-1.0798,-1.0826,-1.0869,-1.0872,-1.0929,-1.0944,-1.098,-1.1015,-1.1009,-1.1066,-1.1083,-1.1086,-1.1042,-1.1039,-1.1035,-1.1026,-1.105,0,0,0,0,0,-1.0532,-1.0564,-1.0631,-1.0655,-1.0676,-1.0733,-1.0757,-1.0789,-1.0837,-1.0856,-1.0903,-1.0949,-1.0991,-1.1017,-1.1059,-1.1093,-1.1109,-1.1103,-1.11,-1.1097,-1.1098,-1.1119,-1.1117,-1.1135,-1.1135,-1.1135,0,0,-1.0515,-1.0562,-1.0579,-1.0645,-1.0683,-1.0717,-1.0748,-1.0783,-1.0809,-1.0862,-1.0903,-1.0939,-1.0996,-1.1033,-1.1053,-1.1063,-1.1097,-1.1096,-1.1093,-1.1097,-1.1118,-1.1117,-1.1115,-1.1135,-1.1135,-1.1135,0,0,-1.0503,-1.0541,-1.0565,-1.0602,-1.0657,-1.0696,-1.0701,-1.0766,-1.0791,-1.0834,-1.0874,-1.0907,-1.0977,-1.1015,-1.1044,-1.1046,-1.1075,-1.1058,-1.104,-1.106,-1.1059,-1.1058,-1.1058,-1.1058,-1.106,-1.106,-1.106,0,-1.0476,-1.0526,-1.0574,-1.0606,-1.0635,-1.0683,-1.0708,-1.0742,-1.081,-1.0829,-1.0839,-1.0928,-1.0969,-1.1017,-1.1017,-1.1039,-1.1048,-1.105,-1.1055,-1.1054,-1.1054,-1.1055,-1.1056,-1.1057,-1.1057,-1.1058,-1.1058,0,-1.049,-1.0525,-1.0539,-1.06,-1.063,-1.0659,-1.0713,-1.0738,-1.0767,-1.0805,-1.0848,-1.0899,-1.0952,-1.0966,-1.0996,-1.1019,-1.1023,-1.1043,-1.1062,-1.1049,-1.1051,-1.1052,-1.1054,-1.1054,-1.1055,-1.1056,0,0,-1.0446,-1.0533,-1.0537,-1.0566,-1.0631,-1.066,-1.0692,-1.0742,-1.0762,-1.0808,-1.0836,-1.0894,-1.0913,-1.0946,-1.0981,-1.0998,-1.0996,-1.1016,-1.1019,-1.1011,-1.1025,-1.1008,-1.1008,-1.1016,-1.1017,-1.1017,-1.102,0,-1.0442,-1.0498,-1.0543,-1.0583,-1.0616,-1.0663,-1.0691,-1.0735,-1.0771,-1.0806,-1.0847,-1.0887,-1.0909,-1.0929,-1.0948,-1.0992,-1.1,-1.0993,-1.1045,-1.1046,-1.1028,-1.1009,-1.0992,-1.0992,-1.1021,-1.1021,-1.1021,0,-1.0445,-1.0486,-1.0529,-1.0591,-1.0607,-1.063,-1.068,-1.0712,-1.0764,-1.0789,-1.0825,-1.0861,-1.0899,-1.0914,-1.0966,-1.096,-1.0985,-1.101,-1.1011,-1.1017,-1.1032,-1.1015,-1.0993,-1.0993,-1.1023,-1.1023,-1.1023,0,-1.0407,-1.0474,-1.0508,-1.0531,-1.0605,-1.062,-1.0652,-1.0703,-1.0731,-1.0775,-1.0794,-1.0843,-1.0869,-1.0907,-1.0956,-1.0963,-1.1004,-1.1023,-1.1027,-1.1025,-1.1033,-1.1031,-1.1014,-1.1049,-1.1049,-1.1049,-1.1049,0,-1.0397,-1.0422,-1.0492,-1.0513,-1.0542,-1.0594,-1.0623,-1.0659,-1.0704,-1.0734,-1.0779,-1.0807,-1.087,-1.0906,-1.0945,-1.0982,-1.0994,-1.1017,-1.1027,-1.1012,-1.1009,-1.1028,-1.1029,-1.1049,-1.1049,-1.1049,-1.1049,0,-1.036,-1.0407,-1.0448,-1.0514,-1.0531,-1.0549,-1.0607,-1.063,-1.0669,-1.0706,-1.0718,-1.078,-1.0824,-1.0877,-1.094,-1.0966,-1.1,-1.1015,-1.0982,-1.0988,-1.0988,-1.0987,-1.0982,-1.0985,-1.1018,-1.1017,-1.1017,0,-1.035,-1.0369,-1.0437,-1.0459,-1.0489,-1.0525,-1.0553,-1.0605,-1.0633,-1.0693,-1.0709,-1.0757,-1.0798,-1.0868,-1.0919,-1.0967,-1.0984,-1.0979,-1.0991,-1.0976,-1.0983,-1.0981,-1.0983,-1.0975,-1.0974,-1.0974,-1.0973,0,-1.0327,-1.035,-1.0387,-1.0433,-1.0465,-1.0504,-1.0545,-1.0562,-1.0623,-1.0652,-1.0697,-1.0729,-1.0792,-1.0839,-1.0894,-1.0929,-1.0962,-1.0969,-1.0972,-1.0958,-1.0937,-1.0948,-1.0972,-1.0969,-1.0969,-1.097,-1.097,-1.097,-1.0303,-1.0323,-1.0373,-1.0413,-1.0449,-1.0487,-1.0512,-1.0553,-1.0591,-1.0645,-1.0675,-1.0719,-1.0772,-1.0849,-1.0883,-1.092,-1.0931,-1.0936,-1.0937,-1.0937,-1.0933,-1.0932,-1.093,-1.093,-1.0931,-1.0931,-1.0931,0,-1.0282,-1.0317,-1.0353,-1.0409,-1.0441,-1.0467,-1.0515,-1.054,-1.0578,-1.0624,-1.0663,-1.0715,-1.0762,-1.0817,-1.0867,-1.0886,-1.0902,-1.0898,-1.0896,-1.0904,-1.092,-1.0912,-1.0883,-1.0883,-1.0883,-1.0883,-1.0883,-1.0883,-1.0275,-1.0309,-1.0338,-1.0391,-1.0427,-1.0469,-1.0494,-1.0529,-1.0566,-1.0622,-1.0659,-1.0695,-1.0745,-1.0799,-1.0843,-1.0859,-1.0875,-1.0865,-1.0885,-1.0899,-1.0903,-1.0907,-1.0899,-1.0869,-1.0869,-1.0866,-1.0866,-1.0866]},{"header":{"parameterUnit":"m.s-1","parameterCategory":1,"la1":30.2991,"la2":30.254,"lo1":-89.0895,"lo2":-89.0444,"dy":0.0017,"dx":0.0017,"nx":28,"ny":28,"refTime":"2024-02-11T03:00:00:Z","depth":0,"parameterNumber":3,"parameterNumberName":"V-component_of_WINDS"},"data":[0,0,0,0,0,0,0,0,0,0,0,0,0,0,0,0,0,0,0,0,0,0,0,0,0,0,0,0,0,0,0,0,0,0,0,0,0,0,0,0,0,0,0,0,0,0,0,0,0,0,0,0,0,0,0,0,0,0,2.8976,2.8978,0,2.9163,2.9165,2.9167,2.9242,2.9241,2.9241,2.924,2.943,2.9436,2.9441,0,0,0,0,0,0,0,0,0,0,0,0,0,2.8684,2.8689,2.8976,2.8978,2.898,2.9162,2.9165,2.9168,2.9242,2.9241,2.9241,2.924,2.9429,2.9435,2.9442,0,0,0,0,0,0,0,0,0,0,0,0,0,2.8835,2.869,2.8975,2.9039,2.9047,2.9162,2.9165,2.9168,2.9242,2.9241,2.9241,2.924,2.9426,2.9434,2.9442,2.9507,0,0,2.9468,2.9471,0,0,0,0,0,0,0,0,2.8826,2.8845,2.9028,2.9035,2.9044,2.9178,2.9132,2.9282,2.9242,2.9168,2.924,2.924,2.9347,2.9362,2.9398,2.9516,2.9524,2.9468,2.9473,2.9477,2.9479,0,0,0,0,0,0,0,2.8815,2.8838,2.905,2.903,2.904,2.9059,2.908,2.9161,2.9259,2.9174,2.918,2.9201,2.9351,2.939,2.9403,2.9527,2.9468,2.9475,2.948,2.9484,2.971,2.9711,0,0,0,0,0,0,2.8794,2.8828,2.9044,2.9055,2.8931,2.9065,2.9088,2.9136,2.9258,2.9276,2.9202,2.9204,2.9376,2.9393,2.941,2.9496,2.9477,2.9484,2.9489,2.9709,2.971,2.9712,0,0,0,0,0,0,2.8788,2.8813,2.9036,2.8944,2.8973,2.9071,2.9124,2.914,2.9179,2.9279,2.9297,2.9223,2.9376,2.9399,2.9483,2.9504,2.9488,2.9496,2.9708,2.971,2.9711,2.9667,0,0,0,0,0,0,2.8779,2.881,2.8835,2.8944,2.8978,2.9106,2.9125,2.9144,2.9193,2.9198,2.9304,2.9321,2.9378,2.9471,2.9491,2.9515,2.9502,2.9706,2.9709,2.9711,2.9667,2.9667,2.9666,0,0,0,0,0,2.8768,2.8814,2.8836,2.8861,2.9011,2.9107,2.9126,2.9191,2.9194,2.9221,2.9286,2.9318,2.9498,2.9479,2.9503,2.9529,2.9705,2.9708,2.971,2.9667,2.9667,2.9666,0,0,0,0,0,0,2.8704,2.8829,2.8855,2.8937,2.9011,2.9119,2.9154,2.9188,2.9262,2.9264,2.9341,2.9364,2.9443,2.9494,2.947,2.9599,2.9604,2.9611,2.9563,2.9564,2.9563,2.955,2.9509,0,0,0,0,0,2.87,2.8767,2.8872,2.8935,2.8971,2.9056,2.91,2.9144,2.9223,2.9254,2.9325,2.9401,2.9475,2.9522,2.9595,2.9674,2.97,2.9704,2.9704,2.9704,2.9709,2.9758,2.9762,2.972,2.972,2.972,0,0,2.8691,2.8768,2.8805,2.8924,2.8986,2.9054,2.9082,2.9152,2.9204,2.9265,2.935,2.9405,2.9494,2.9577,2.9617,2.9622,2.9727,2.9707,2.9705,2.9712,2.9761,2.9765,2.9768,2.9721,2.9721,2.9721,0,0,2.871,2.8774,2.8835,2.8897,2.8992,2.9049,2.9063,2.9167,2.9206,2.9293,2.9341,2.9404,2.9529,2.9592,2.964,2.9686,2.9719,2.9708,2.9707,2.9754,2.9757,2.976,2.9779,2.9784,2.9713,2.9713,2.9713,0,2.8687,2.8792,2.8861,2.893,2.8982,2.9042,2.9104,2.9161,2.9274,2.9309,2.9313,2.9474,2.9538,2.9638,2.965,2.9686,2.9706,2.9696,2.9751,2.9755,2.9759,2.9778,2.9784,2.9711,2.9711,2.9711,2.9712,0,2.876,2.8832,2.887,2.898,2.9036,2.91,2.918,2.9229,2.9268,2.9325,2.9414,2.9493,2.9585,2.9612,2.965,2.9718,2.9719,2.9736,2.9743,2.976,2.9779,2.9786,2.9708,2.9709,2.971,2.971,0,0,2.8743,2.8892,2.8905,2.8957,2.9067,2.9124,2.9193,2.9284,2.9325,2.9401,2.9462,2.9568,2.9586,2.964,2.9687,2.9727,2.9761,2.974,2.9743,2.9743,2.9844,2.9831,2.9838,2.9784,2.9785,2.9787,2.9837,0,2.8778,2.8904,2.897,2.9068,2.9137,2.9196,2.9257,2.9331,2.9386,2.9453,2.9514,2.9589,2.9605,2.9639,2.9682,2.9748,2.9783,2.9745,2.9842,2.9844,2.9819,2.9848,2.9834,2.9878,2.9844,2.9846,2.9847,0,2.8836,2.8914,2.9019,2.9124,2.9156,2.9208,2.9299,2.9362,2.9448,2.9486,2.9548,2.9594,2.967,2.9671,2.9777,2.975,2.9794,2.9832,2.9836,2.9848,2.9847,2.9862,2.9893,2.99,2.9858,2.9858,2.9857,0,2.8815,2.8946,2.9027,2.9069,2.9193,2.923,2.9283,2.9369,2.942,2.9499,2.9534,2.962,2.9667,2.9733,2.9802,2.9795,2.9902,2.9908,2.9936,2.9935,2.9957,2.9955,2.9996,2.9982,2.9982,2.9982,2.9982,0,2.8848,2.891,2.902,2.907,2.9143,2.9218,2.9288,2.9346,2.9422,2.9485,2.9541,2.9599,2.9685,2.9754,2.9808,2.9889,2.991,2.9943,2.9957,2.9939,2.9935,2.9969,2.9968,2.9984,2.9983,2.9983,2.9983,0,2.8837,2.8912,2.9005,2.9116,2.9145,2.9194,2.9289,2.934,2.94,2.9479,2.9502,2.9594,2.9679,2.9754,2.9864,2.9901,2.9985,3.0001,2.9956,2.9964,2.9989,2.9986,3.0055,3.0069,3.0043,3.0043,3.0043,0,2.8853,2.8903,2.902,2.9067,2.912,2.9194,2.9248,2.9324,2.9378,2.9482,2.9521,2.961,2.9685,2.9817,2.9894,2.998,3.0,3.0019,3.0013,2.9995,3.0003,3.0,3.0006,3.0018,3.0018,3.0018,3.0018,0,2.8875,2.8911,2.8986,2.9076,2.9139,2.9213,2.9288,2.9323,2.9414,2.9472,2.956,2.9618,2.9734,2.9822,2.9917,2.9972,3.0011,3.0019,3.0031,3.0013,2.9986,3.0003,2.9957,3.0017,3.0017,3.0017,3.0017,3.0017,2.888,2.8928,2.9019,2.9102,2.9168,2.9238,2.9292,2.936,2.9434,2.9535,2.9576,2.9665,2.9753,2.9885,2.9941,3.0013,3.002,3.0036,3.004,3.0043,3.0041,2.9974,3.003,3.003,3.003,3.003,3.003,0,2.8906,2.8968,2.9044,2.9149,2.9215,2.9247,2.9333,2.9386,2.9465,2.9544,2.9618,2.972,2.9807,2.9892,2.9983,3.0024,3.0045,3.0046,3.0044,3.0057,3.0029,3.0011,3.0028,3.0028,3.0028,3.0028,3.0028,3.0028,2.8928,2.9012,2.9059,2.9178,2.924,2.9329,2.9376,2.9442,2.9506,2.9618,2.9691,2.9746,2.9828,2.9927,3.0008,3.0031,3.0062,3.0059,3.0087,3.0059,3.0058,3.0058,3.0041,3.0065,3.0065,3.0109,3.011,3.011]}]]